Starlink 4799

operational
NORAD ID: 53860 Int'l Des: 2022-114 Owner: SPXS Country: US Constellation: starlink
LEOCIRCULAR

About Starlink 4799

Description loading...

Live Position

Loading 3D Globe...

Upcoming Passes

Altitude History

Altitude vs Time

uPlot chart will show altitude changes over time

Two-Line Element Set

1 53860U 22114AU 26062.08839937 .00000079 00000-0 23052-4 0 9997
2 53860 53.2186 313.8686 0001602 86.3803 273.7372 15.08838272191872
Epoch: Mar 3, 2026 • Age: 26 hours

Current Status

Altitude 546.4 km
Velocity 7.59 km/s
Sub-Earth Point -21.87°S, 102.53°E
Launch Date Sep 19, 2022
Age 3.4 years
Type internet

Technical Details

Classification Payload
Mass 305.00 kg
Dry Mass 290.00 kg
Total Mass 305.00 kg
Length 0.20 m
Diameter 2.80 m
Span 9.00 m
Shape Box + pan
Manufacturer SPXS
Bus Type Starlink
Phase Status In Orbit
Owner/State SPXS/US

Large Constellations

Loading constellations...